This demonstration page uses our WeatherBlox Daily Observations layout. Learn more.

Hourly Observations for December 25, 2019

Temp ( °F °C ) Dew Point ( °F °C ) Humidity (%) Winds ( mph kmh ) Pressure ( in mb ) Visibility ( mi km ) Precip ( " mm )
12:54 am 00:54 Clear 35 1.7 30 -1.1 82 82 N 3 6 29.69 1006 10 16.0934 0 0
1:54 am 01:54 Clear 35 1.7 31 -0.6 85 85 SE 5 7 29.69 1006 10 16.0934 0 0
2:54 am 02:54 Clear 36 2.2 31 -0.6 82 82 Calm 29.71 1006 10 16.0934 0 0
3:54 am 03:54 Partly Cloudy 39 3.9 33 0.6 79 79 SW 5 7 29.71 1006 10 16.0934 0 0
4:54 am 04:54 Mostly Clear 39 3.9 32 0 76 76 W 5 7 29.73 1007 10 16.0934 0 0
5:54 am 05:54 Mostly Clear 36 2.2 31 -0.6 82 82 NW 5 7 29.72 1006 10 16.0934 0 0
6:54 am 06:54 Clear 34 1.1 30 -1.1 85 85 NNW 5 7 29.75 1008 8 12.87472 0 0
7:54 am 07:54 Sunny with Mist and Fog 29 -1.7 27 -2.8 92 92 N 5 7 29.75 1007 4 6.43736 0 0
8:54 am 08:54 Cloudy with Mist and Fog 34 1.1 30 -1.1 85 85 NNE 5 7 29.73 1007 4 6.43736 0 0
9:12 am 09:12 Cloudy with Mist and Fog 34 1.1 31 -0.6 89 89 NE 7 11 29.76 1008 4 6.43736 0 0
9:49 am 09:49 Mostly Cloudy with Haze 36 2 30 -1 81 81 NNE 6 9 29.77 1008 5 8.0467 0 0
9:54 am 09:54 Mostly Cloudy with Haze 36 2.2 31 -0.6 82 82 NNE 7 11 29.74 1007 5 8.0467 0 0
10:54 am 10:54 Sunny 40 4.4 32 0 73 73 ENE 3 6 29.73 1007 7 11.26538 0 0
11:54 am 11:54 Sunny 44 6.7 33 0.6 65 65 NNW 5 7 29.69 1005 9 14.48406 0 0
12:54 pm 12:54 Sunny 48 8.9 34 1.1 58 58 Calm 29.66 1005 10 16.0934 0 0
1:54 pm 13:54 Sunny 52 11.1 34 1.1 50 50 N 5 7 29.66 1005 10 16.0934 0 0
2:54 pm 14:54 Sunny 52 11.1 35 1.7 53 53 N 9 15 29.67 1005 10 16.0934 0 0
3:54 pm 15:54 Sunny 46 7.8 33 0.6 61 61 NNW 16 26 29.7 1006 9 14.48406 0 0
4:54 pm 16:54 Sunny 40 4.4 32 0 73 73 NNW 14 22 29.73 1007 10 16.0934 0 0
5:54 pm 17:54 Clear 37 2.8 31 -0.6 79 79 NNW 10 17 29.77 1008 10 16.0934 0 0
6:50 pm 18:50 Mostly Cloudy with Haze 36 2 30 -1 81 81 NNW 10 17 29.83 1010 6 9.65604 0 0
6:54 pm 18:54 Mostly Cloudy with Mist and Fog 35 1.7 31 -0.6 85 85 N 10 17 29.8 1009 6 9.65604 0 0
7:54 pm 19:54 Cloudy with Haze 36 2.2 31 -0.6 82 82 NNW 10 17 29.83 1010 6 9.65604 0 0
8:54 pm 20:54 Cloudy with Mist and Fog 35 1.7 31 -0.6 85 85 NNW 10 17 29.84 1011 6 9.65604 0 0
9:54 pm 21:54 Cloudy with Mist and Fog 34 1.1 30 -1.1 85 85 NNW 10 17 29.86 1011 6 9.65604 0 0
10:54 pm 22:54 Cloudy with Mist and Fog 33 0.6 29 -1.7 85 85 NNW 13 20 29.88 1012 6 9.65604 0 0
11:54 pm 23:54 Cloudy with Mist and Fog 32 0 28 -2.2 85 85 NNW 10 17 29.9 1013 6 9.65604 0 0

Powered by AerisWeather